This demonstration page uses our WeatherBlox Daily Observations layout. Learn more.

Left ArrowRight Arrow

Hourly Observations for May 3, 2019

Temp ( °F °C ) Dew Point ( °F °C ) Humidity (%) Winds ( mph kmh ) Pressure ( in mb ) Visibility ( mi km ) Precip ( " mm )
12:52 am 00:52 Cloudy 58 14.4 54 12.2 87 87 NE 7 11 30.03 1017 10 16 0.00 0.00
1:52 am 01:52 Cloudy 58 14.4 54 12.2 87 87 NE 6 9 30.02 1017 10 16 0.00 0.00
2:52 am 02:52 Cloudy 58 14.4 54 12.2 87 87 NE 5 7 29.99 1016 10 16 0.00 0.00
3:21 am 03:21 Cloudy 58 14.4 54 12.2 87 87 ENE 7 11 29.99 1016 10 16 0.00 0.00
3:42 am 03:42 Cloudy 58 14.4 54 12.2 87 87 ENE 6 9 29.99 1016 10 16 0.00 0.00
3:52 am 03:52 Cloudy 58 14.4 54 12.2 87 87 ENE 5 7 29.98 1015 10 16 0.00 0.00
4:52 am 04:52 Cloudy 58 14.4 54 12.2 87 87 ENE 6 9 29.97 1015 10 16 0.00 0.00
5:52 am 05:52 Cloudy 58 14.4 54 12.2 87 87 E 5 7 29.98 1015 10 16 0.00 0.00
6:52 am 06:52 Cloudy 58 14.4 55 12.8 90 90 E 5 7 30.01 1016 10 16 0.00 0.00
8:52 am 08:52 Cloudy 60 15.6 56 13.3 86 86 E 6 9 30.00 1016 10 16 0.00 0.00
10:52 am 10:52 Cloudy 63 17.2 58 14.4 84 84 SE 9 15 29.98 1015 10 16 0.00 0.00
11:52 am 11:52 Cloudy 64 17.8 59 15 84 84 S 8 13 29.98 1015 10 16 0.00 0.00
12:10 pm 12:10 Cloudy 65 18.3 59 15 81 81 SSE 9 15 29.97 1015 10 16 0.00 0.00
12:52 pm 12:52 Cloudy 65 18.3 60 15.6 84 84 SSE 7 11 29.98 1015 10 16 0.00 0.00
1:52 pm 13:52 Cloudy 65 18.3 60 15.6 84 84 SE 3 6 29.96 1015 10 16 0.00 0.00
2:34 pm 14:34 Cloudy 68 20 62 16.7 81 81 SE 8 13 29.92 1013 10 16 0.00 0.03
2:44 pm 14:44 Mostly Cloudy 67 19.4 60 15.6 79 79 VRB 5 7 29.92 1013 10 16 0.00 0.03
2:47 pm 14:47 Mostly Cloudy 68 20 61 16 78 78 ESE 7 11 29.91 1013 10 16 0.00 0.03
2:52 pm 14:52 Mostly Cloudy 68 20 61 16.1 78 78 VRB 6 9 29.93 1013 10 16 0.00 0.03
3:04 pm 15:04 Mostly Cloudy 68 20 60 15.6 76 76 SE 7 11 29.91 1013 10 16 0.00 0.00
3:32 pm 15:32 Cloudy 68 20 60 15.6 76 76 SE 5 7 29.90 1013 10 16 0.00 0.00
3:40 pm 15:40 Cloudy 69 20.6 61 16.1 76 76 SE 7 11 29.89 1012 10 16 0.00 0.00
3:52 pm 15:52 Cloudy 68 20 60 15.6 76 76 ESE 9 15 29.90 1012 10 16 0.00 0.00
4:03 pm 16:03 Cloudy 67 19.4 60 15.6 79 79 SE 8 13 29.89 1012 10 16 0.00 0.00
4:27 pm 16:27 Cloudy 67 19.4 60 15.6 79 79 ESE 7 11 29.88 1012 10 16 0.00 0.03
4:43 pm 16:43 Cloudy with Thunderstorms 66 18.9 61 16.1 84 84 NE 5 7 29.89 1012 10 16 0.00 0.03
4:52 pm 16:52 Cloudy with Thunderstorms 66 18.9 61 16.1 84 84 NNE 8 13 29.90 1013 4 6 0.01 0.25
5:13 pm 17:13 Cloudy with Nearby Thunderstorms 64 17.8 62 16.7 93 93 Calm 29.91 1013 3 5 0.08 2.03
5:22 pm 17:22 Cloudy with Nearby Thunderstorms 65 18.3 61 16.1 87 87 NW 6 9 29.91 1013 3 4 0.11 2.79
5:27 pm 17:27 Cloudy with Nearby Thunderstorms 64 17.8 61 16.1 90 90 NW 7 11 29.92 1013 3 4 0.13 3.30
5:38 pm 17:38 Cloudy with Strong Thunderstorms 63 17.2 60 15.6 90 90 WNW 17 28 29.95 1014 1 2 0.22 5.59
5:41 pm 17:41 Cloudy with Strong Thunderstorms 62 16.7 59 15 90 90 WNW 16 26 29.95 1014 1 1 0.29 7.37
5:52 pm 17:52 Cloudy with Strong Thunderstorms 61 16.1 59 15 93 93 NNW 20 31 29.94 1014 1 1 0.68 17.27
5:59 pm 17:59 Cloudy with Strong Thunderstorms 61 16.1 59 15 93 93 NW 13 20 29.95 1014 1 2 0.12 3.05
6:03 pm 18:03 Cloudy with Thunderstorms 61 16.1 59 15 93 93 NW 9 15 29.95 1014 2 3 0.14 3.56
6:12 pm 18:12 Cloudy with Thunderstorms 61 16.1 59 15 93 93 NW 7 11 29.94 1014 3 5 0.17 4.32
6:34 pm 18:34 Cloudy with Nearby Thunderstorms 61 16.1 59 15 93 93 SE 3 6 29.93 1014 3 5 0.24 6.10
6:41 pm 18:41 Cloudy with Rain 61 16.1 59 15 93 93 SSE 7 11 29.94 1014 4 6 0.28 7.11
6:52 pm 18:52 Cloudy with Rain 61 16.1 59 15 93 93 SE 7 11 29.93 1014 5 8 0.32 8.13
7:52 pm 19:52 Sunny 61 16.1 58 14.4 90 90 Calm 29.93 1013 10 16 0.03 0.76
8:04 pm 20:04 Partly Cloudy 60 15.6 58 14.4 93 93 NW 6 9 29.92 1013 10 16 0.00 0.00
8:52 pm 20:52 Mostly Cloudy 60 15.6 58 14.4 93 93 NW 3 6 29.94 1014 10 16 0.00 0.00
9:13 pm 21:13 Cloudy 60 15.6 58 14.4 93 93 N 6 9 29.93 1014 10 16 0.00 0.00
9:20 pm 21:20 Cloudy 60 15.6 57 13.9 90 90 N 6 9 29.93 1014 10 16 0.00 0.00
9:28 pm 21:28 Cloudy 60 15.6 57 13.9 90 90 N 7 11 29.93 1014 10 16 0.00 0.00
9:52 pm 21:52 Cloudy 59 15 57 13.9 93 93 NNE 7 11 29.93 1014 10 16 0.00 0.00
10:52 pm 22:52 Cloudy 58 14.4 57 13.9 97 97 NNE 7 11 29.92 1013 10 16 0.00 0.00
11:52 pm 23:52 Cloudy with Mist and Fog 57 13.9 56 13.3 96 96 NNE 9 15 29.92 1013 6 10 0.00 0.00

Powered by AerisWeather